LOT484 ENGM-EPWA

Flight info

Callsign LOT484
Flight time 1h 35m
Altitude 39000
Route OKSAT L996 GETPA L727 NEGIL DCT LARMA DCT NASOK DCT SORIX
Aircraft B38M/M-SDE1FGHILORVWXY/HB1

Departure

Time 2026-05-07 14:42
Airport Oslo-Gardermoen International Airport (ENGM)

Arrival

Time 2026-05-07 16:17
Airport Warsaw Chopin Airport (EPWA)
Time Latitude Longitude Altitude Speed Heading
2026-05-07 14:09 60.19391 11.10647 687 ft 0 kts 196°
2026-05-07 14:11 60.19407 11.10551 682 ft 0 kts 196°
2026-05-07 14:33 60.19414 11.10555 687 ft 4 kts 196°
2026-05-07 14:34 60.19440 11.10570 680 ft 4 kts 196°
2026-05-07 14:34 60.19466 11.10585 681 ft 4 kts 195°
2026-05-07 14:34 60.19487 11.10596 680 ft 4 kts 190°
2026-05-07 14:34 60.19508 11.10594 682 ft 4 kts 133°
2026-05-07 14:35 60.19512 11.10582 683 ft 3 kts 106°
2026-05-07 14:35 60.19506 11.10625 680 ft 1 kts 106°
2026-05-07 14:35 60.19506 11.10626 680 ft 2 kts 106°
2026-05-07 14:37 60.19502 11.10654 682 ft 6 kts 106°
2026-05-07 14:38 60.19480 11.10803 686 ft 15 kts 106°
2026-05-07 14:38 60.19450 11.11018 682 ft 17 kts 106°
2026-05-07 14:38 60.19424 11.11261 680 ft 15 kts 73°
2026-05-07 14:38 60.19498 11.11327 684 ft 13 kts 14°
2026-05-07 14:39 60.19604 11.11389 685 ft 17 kts 16°
2026-05-07 14:39 60.19725 11.11457 686 ft 19 kts 17°
2026-05-07 14:39 60.19853 11.11531 687 ft 20 kts 16°
2026-05-07 14:39 60.19989 11.11610 688 ft 21 kts 15°
2026-05-07 14:40 60.20130 11.11692 688 ft 20 kts 16°
2026-05-07 14:40 60.20173 11.11802 683 ft 12 kts 97°
2026-05-07 14:40 60.20149 11.11975 687 ft 13 kts 106°
2026-05-07 14:40 60.20145 11.12002 688 ft 0 kts 106°
2026-05-07 14:41 60.20142 11.12026 689 ft 7 kts 106°
2026-05-07 14:41 60.20107 11.12199 690 ft 16 kts 142°
2026-05-07 14:42 60.20002 11.12181 688 ft 18 kts 196°
2026-05-07 14:42 60.19607 11.11950 686 ft 101 kts 196°
2026-05-07 14:42 60.18692 11.11421 703 ft 168 kts 198°
2026-05-07 14:42 60.17495 11.10704 1333 ft 188 kts 198°
2026-05-07 14:43 60.16170 11.09949 2101 ft 204 kts 197°
2026-05-07 14:43 60.14743 11.09192 2662 ft 225 kts 193°
2026-05-07 14:43 60.13134 11.09472 3215 ft 238 kts 155°
2026-05-07 14:43 60.11842 11.11500 4187 ft 242 kts 134°
2026-05-07 14:44 60.11072 11.13150 4714 ft 246 kts 134°
2026-05-07 14:44 60.09868 11.15689 5413 ft 260 kts 134°
2026-05-07 14:44 60.08581 11.18404 6067 ft 271 kts 134°
2026-05-07 14:44 60.07282 11.21148 6995 ft 273 kts 134°
2026-05-07 14:45 60.05968 11.23952 7752 ft 279 kts 130°
2026-05-07 14:45 60.04805 11.27104 8558 ft 285 kts 126°
2026-05-07 14:45 60.03631 11.30355 9330 ft 290 kts 127°
2026-05-07 14:45 60.02416 11.33626 10092 ft 296 kts 127°
2026-05-07 14:46 60.01164 11.36997 10602 ft 310 kts 128°
2026-05-07 14:46 59.99841 11.40562 10923 ft 329 kts 128°
2026-05-07 14:46 59.98451 11.44300 11364 ft 342 kts 128°
2026-05-07 14:46 59.97026 11.48131 12089 ft 345 kts 128°
2026-05-07 14:47 59.95552 11.51954 12768 ft 350 kts 134°
2026-05-07 14:47 59.93635 11.54828 13521 ft 346 kts 158°
2026-05-07 14:47 59.91347 11.56305 14169 ft 348 kts 167°
2026-05-07 14:47 59.89013 11.57775 14819 ft 353 kts 166°
2026-05-07 14:48 59.86662 11.59305 15449 ft 358 kts 166°
2026-05-07 14:48 59.84291 11.60872 16093 ft 362 kts 166°
2026-05-07 14:48 59.81889 11.62471 16721 ft 366 kts 166°
2026-05-07 14:48 59.79462 11.64091 17334 ft 370 kts 166°
2026-05-07 14:49 59.77008 11.65730 17936 ft 374 kts 166°
2026-05-07 14:49 59.74525 11.67387 18501 ft 379 kts 166°
2026-05-07 14:49 59.72020 11.69057 18996 ft 382 kts 167°
2026-05-07 14:49 59.69481 11.70747 19507 ft 386 kts 167°
2026-05-07 14:50 59.66930 11.72442 19997 ft 389 kts 167°
2026-05-07 14:50 59.64346 11.74155 20463 ft 392 kts 167°
2026-05-07 14:50 59.61755 11.75870 20958 ft 395 kts 167°
2026-05-07 14:50 59.59137 11.77602 21417 ft 399 kts 167°
2026-05-07 14:51 59.56490 11.79349 21884 ft 402 kts 167°
2026-05-07 14:51 59.53829 11.81102 22372 ft 405 kts 167°
2026-05-07 14:51 59.51149 11.82865 22857 ft 409 kts 167°
2026-05-07 14:51 59.48444 11.84641 23345 ft 412 kts 167°
2026-05-07 14:52 59.45712 11.86431 23790 ft 416 kts 167°
2026-05-07 14:52 59.42960 11.88233 24220 ft 418 kts 167°
2026-05-07 14:52 59.40189 11.90043 24630 ft 421 kts 167°
2026-05-07 14:52 59.37395 11.91864 25061 ft 424 kts 167°
2026-05-07 14:53 59.34590 11.93690 25497 ft 427 kts 167°
2026-05-07 14:53 59.31754 11.95535 25918 ft 429 kts 167°
2026-05-07 14:53 59.28931 11.97364 26383 ft 431 kts 167°
2026-05-07 14:53 59.26067 11.99219 26782 ft 434 kts 167°
2026-05-07 14:54 59.23189 12.01079 27197 ft 437 kts 167°
2026-05-07 14:54 59.20295 12.02946 27593 ft 440 kts 167°
2026-05-07 14:54 59.17371 12.04829 27986 ft 443 kts 167°
2026-05-07 14:54 59.14473 12.06692 28364 ft 446 kts 167°
2026-05-07 14:55 59.11482 12.08611 28760 ft 449 kts 167°
2026-05-07 14:55 59.08508 12.10516 29137 ft 451 kts 167°
2026-05-07 14:55 59.05562 12.12399 29503 ft 454 kts 167°
2026-05-07 14:55 59.02509 12.14348 29810 ft 457 kts 167°
2026-05-07 14:56 58.99523 12.16250 30205 ft 458 kts 167°
2026-05-07 14:56 58.96485 12.18181 30500 ft 461 kts 167°
2026-05-07 14:56 58.93395 12.20142 30799 ft 463 kts 167°
2026-05-07 14:56 58.90362 12.22063 31106 ft 465 kts 167°
2026-05-07 14:57 58.87242 12.24036 31406 ft 468 kts 167°
2026-05-07 14:57 58.84176 12.25970 31685 ft 470 kts 167°
2026-05-07 14:57 58.81084 12.27918 31975 ft 472 kts 167°
2026-05-07 14:57 58.77950 12.29888 32261 ft 474 kts 167°
2026-05-07 14:58 58.74804 12.31861 32542 ft 476 kts 167°
2026-05-07 14:58 58.71643 12.33840 32799 ft 478 kts 166°
2026-05-07 14:58 58.68484 12.35815 33195 ft 477 kts 166°
2026-05-07 14:58 58.65325 12.37785 33594 ft 476 kts 166°
2026-05-07 14:59 58.62182 12.39740 33965 ft 476 kts 166°
2026-05-07 14:59 58.59036 12.41696 34296 ft 475 kts 166°
2026-05-07 14:59 58.55895 12.43644 34637 ft 474 kts 166°
2026-05-07 14:59 58.52762 12.45583 34976 ft 473 kts 166°
2026-05-07 15:00 58.49636 12.47514 35321 ft 471 kts 166°
2026-05-07 15:00 58.46520 12.49436 35660 ft 470 kts 166°
2026-05-07 15:00 58.43415 12.51347 35999 ft 469 kts 166°
2026-05-07 15:00 58.40319 12.53251 36318 ft 467 kts 166°
2026-05-07 15:01 58.37230 12.55145 36670 ft 465 kts 166°
2026-05-07 15:01 58.34167 12.57020 37011 ft 463 kts 166°
2026-05-07 15:01 58.31106 12.58891 37329 ft 462 kts 166°
2026-05-07 15:01 58.28049 12.60756 37627 ft 461 kts 166°
2026-05-07 15:02 58.25082 12.63067 37907 ft 465 kts 153°
2026-05-07 15:02 58.22453 12.66688 38233 ft 467 kts 144°
2026-05-07 15:02 58.19887 12.70436 38411 ft 467 kts 146°
2026-05-07 15:02 58.17287 12.74150 38646 ft 467 kts 146°
2026-05-07 15:03 58.14699 12.77847 38860 ft 466 kts 146°
2026-05-07 15:03 58.12123 12.81522 39025 ft 466 kts 147°
2026-05-07 15:03 58.06944 12.88889 39087 ft 465 kts 147°
2026-05-07 15:04 58.01775 12.96214 39078 ft 464 kts 147°
2026-05-07 15:04 57.96631 13.03476 39083 ft 465 kts 147°
2026-05-07 15:05 57.91457 13.10756 39087 ft 465 kts 147°
2026-05-07 15:05 57.86269 13.18027 39088 ft 465 kts 147°
2026-05-07 15:06 57.81079 13.25274 39078 ft 465 kts 147°
2026-05-07 15:06 57.75886 13.32501 39069 ft 465 kts 147°
2026-05-07 15:07 57.70700 13.39689 39077 ft 465 kts 147°
2026-05-07 15:07 57.65497 13.46875 39074 ft 465 kts 147°
2026-05-07 15:08 57.60300 13.54026 39070 ft 464 kts 147°
2026-05-07 15:08 57.55096 13.61161 39066 ft 464 kts 147°
2026-05-07 15:09 57.49898 13.68262 39066 ft 464 kts 147°
2026-05-07 15:09 57.44688 13.75355 39048 ft 464 kts 147°
2026-05-07 15:10 57.39481 13.82417 39062 ft 463 kts 147°
2026-05-07 15:10 57.34277 13.89450 39063 ft 463 kts 147°
2026-05-07 15:11 57.29085 13.96443 39062 ft 462 kts 147°
2026-05-07 15:11 57.23875 14.03433 39063 ft 462 kts 147°
2026-05-07 15:12 57.18669 14.10394 39048 ft 462 kts 147°
2026-05-07 15:12 57.13459 14.17336 39052 ft 462 kts 147°
2026-05-07 15:13 57.08265 14.24232 39047 ft 460 kts 147°
2026-05-07 15:13 57.03081 14.31089 39048 ft 459 kts 147°
2026-05-07 15:14 56.97891 14.37931 39056 ft 459 kts 147°
2026-05-07 15:14 56.92701 14.44749 39053 ft 459 kts 147°
2026-05-07 15:15 56.87527 14.51522 39049 ft 458 kts 147°
2026-05-07 15:15 56.82335 14.58296 39049 ft 458 kts 147°
2026-05-07 15:16 56.77145 14.65044 39045 ft 458 kts 147°
2026-05-07 15:16 56.71961 14.71759 39038 ft 457 kts 148°
2026-05-07 15:17 56.66782 14.78445 39062 ft 457 kts 148°
2026-05-07 15:17 56.61596 14.85119 39065 ft 457 kts 148°
2026-05-07 15:18 56.56411 14.91767 39074 ft 457 kts 148°
2026-05-07 15:18 56.51257 14.98353 39078 ft 457 kts 148°
2026-05-07 15:19 56.46066 15.04963 39080 ft 457 kts 148°
2026-05-07 15:19 56.40874 15.11553 39092 ft 455 kts 148°
2026-05-07 15:20 56.35690 15.18110 39099 ft 455 kts 148°
2026-05-07 15:20 56.30511 15.24639 39100 ft 455 kts 148°
2026-05-07 15:21 56.25317 15.31165 39102 ft 455 kts 148°
2026-05-07 15:21 56.20122 15.37670 39103 ft 455 kts 148°
2026-05-07 15:22 56.14927 15.44152 39101 ft 455 kts 148°
2026-05-07 15:22 56.09737 15.50608 39103 ft 454 kts 148°
2026-05-07 15:23 56.04551 15.57036 39101 ft 453 kts 149°
2026-05-07 15:23 55.99374 15.63432 39105 ft 452 kts 149°
2026-05-07 15:24 55.94192 15.69814 39113 ft 453 kts 149°
2026-05-07 15:24 55.89047 15.76129 39113 ft 453 kts 149°
2026-05-07 15:25 55.83863 15.82471 39110 ft 452 kts 149°
2026-05-07 15:25 55.78674 15.88798 39100 ft 452 kts 149°
2026-05-07 15:26 55.73492 15.95094 39102 ft 451 kts 149°
2026-05-07 15:26 55.68312 16.01369 39104 ft 451 kts 149°
2026-05-07 15:27 55.63117 16.07641 39108 ft 451 kts 149°
2026-05-07 15:27 55.57933 16.13880 39101 ft 451 kts 149°
2026-05-07 15:28 55.52737 16.20116 39099 ft 451 kts 149°
2026-05-07 15:28 55.47543 16.26333 39101 ft 451 kts 149°
2026-05-07 15:29 55.42350 16.32525 39100 ft 451 kts 149°
2026-05-07 15:29 55.37164 16.38693 39106 ft 451 kts 149°
2026-05-07 15:30 55.31958 16.44863 39086 ft 450 kts 149°
2026-05-07 15:30 55.26784 16.51034 39099 ft 451 kts 148°
2026-05-07 15:31 55.21639 16.57328 39105 ft 451 kts 148°
2026-05-07 15:31 55.16487 16.63604 39102 ft 451 kts 148°
2026-05-07 15:32 55.12213 16.68794 39090 ft 450 kts 149°
2026-05-07 15:32 55.07079 16.75013 39098 ft 450 kts 149°
2026-05-07 15:33 55.01943 16.81214 39097 ft 450 kts 149°
2026-05-07 15:33 54.96792 16.87413 39091 ft 450 kts 149°
2026-05-07 15:34 54.91642 16.93590 39094 ft 450 kts 149°
2026-05-07 15:34 54.86508 16.99730 39092 ft 450 kts 149°
2026-05-07 15:35 54.81362 17.05864 39069 ft 450 kts 149°
2026-05-07 15:35 54.76173 17.12030 39095 ft 455 kts 149°
2026-05-07 15:36 54.70958 17.18208 39086 ft 455 kts 149°
2026-05-07 15:36 54.65739 17.24370 39086 ft 454 kts 149°
2026-05-07 15:37 54.60517 17.30516 39080 ft 455 kts 149°
2026-05-07 15:37 54.55291 17.36649 39080 ft 455 kts 149°
2026-05-07 15:38 54.50063 17.42762 39070 ft 452 kts 150°
2026-05-07 15:38 54.44925 17.48755 39071 ft 444 kts 150°
2026-05-07 15:39 54.39815 17.54694 39075 ft 444 kts 150°
2026-05-07 15:39 54.34695 17.60628 39067 ft 444 kts 150°
2026-05-07 15:40 54.29568 17.66551 39063 ft 444 kts 150°
2026-05-07 15:40 54.24456 17.72440 39055 ft 444 kts 150°
2026-05-07 15:41 54.19324 17.78333 39042 ft 443 kts 149°
2026-05-07 15:41 54.14217 17.84179 39052 ft 442 kts 150°
2026-05-07 15:42 54.09140 17.89973 39051 ft 442 kts 150°
2026-05-07 15:42 54.04009 17.95813 39051 ft 442 kts 150°
2026-05-07 15:43 53.98889 18.01621 39044 ft 442 kts 150°
2026-05-07 15:43 53.93812 18.07364 39043 ft 441 kts 150°
2026-05-07 15:44 53.88693 18.13136 39015 ft 442 kts 150°
2026-05-07 15:44 53.83547 18.18923 39045 ft 446 kts 150°
2026-05-07 15:45 53.78381 18.24714 39034 ft 446 kts 150°
2026-05-07 15:45 53.73203 18.30501 39037 ft 446 kts 150°
2026-05-07 15:46 53.65438 18.39148 39030 ft 446 kts 150°
2026-05-07 15:47 53.60261 18.44891 39025 ft 446 kts 150°
2026-05-07 15:47 53.55086 18.50614 39020 ft 444 kts 151°
2026-05-07 15:48 53.49920 18.56311 39027 ft 444 kts 151°
2026-05-07 15:48 53.44756 18.61988 39025 ft 444 kts 151°
2026-05-07 15:49 53.39606 18.67634 38793 ft 441 kts 151°
2026-05-07 15:49 53.37025 18.70456 37951 ft 443 kts 151°
2026-05-07 15:49 53.34441 18.73278 37151 ft 444 kts 152°
2026-05-07 15:49 53.31857 18.76097 36461 ft 443 kts 152°
2026-05-07 15:50 53.29282 18.78902 35771 ft 440 kts 152°
2026-05-07 15:50 53.26733 18.81676 35263 ft 435 kts 153°
2026-05-07 15:50 53.24212 18.84416 34751 ft 429 kts 153°
2026-05-07 15:50 53.21720 18.87121 34215 ft 425 kts 153°
2026-05-07 15:51 53.19263 18.89783 33625 ft 421 kts 153°
2026-05-07 15:51 53.16818 18.92429 33043 ft 416 kts 153°
2026-05-07 15:51 53.14403 18.95039 32550 ft 411 kts 153°
2026-05-07 15:51 53.12028 18.97603 32076 ft 405 kts 153°
2026-05-07 15:52 53.09707 19.00225 31560 ft 405 kts 147°
2026-05-07 15:52 53.07778 19.03718 30992 ft 416 kts 134°
2026-05-07 15:52 53.06020 19.07484 30503 ft 410 kts 136°
2026-05-07 15:52 53.04239 19.11156 30037 ft 406 kts 136°
2026-05-07 15:53 53.02477 19.14797 29432 ft 402 kts 136°
2026-05-07 15:53 53.00735 19.18394 28960 ft 398 kts 136°
2026-05-07 15:53 52.99013 19.21947 28509 ft 393 kts 136°
2026-05-07 15:53 52.97307 19.25461 28050 ft 389 kts 136°
2026-05-07 15:54 52.95617 19.28938 27596 ft 386 kts 136°
2026-05-07 15:54 52.93934 19.32396 27142 ft 383 kts 136°
2026-05-07 15:54 52.92265 19.35819 26697 ft 381 kts 136°
2026-05-07 15:54 52.90627 19.39174 26263 ft 378 kts 136°
2026-05-07 15:55 52.88976 19.42551 25832 ft 376 kts 136°
2026-05-07 15:55 52.87335 19.45905 25409 ft 374 kts 136°
2026-05-07 15:55 52.85710 19.49220 24994 ft 372 kts 136°
2026-05-07 15:55 52.84082 19.52536 24585 ft 370 kts 136°
2026-05-07 15:56 52.82457 19.55844 24162 ft 369 kts 135°
2026-05-07 15:56 52.80845 19.59119 23762 ft 367 kts 135°
2026-05-07 15:56 52.79237 19.62382 23323 ft 366 kts 135°
2026-05-07 15:56 52.77631 19.65638 22876 ft 363 kts 135°
2026-05-07 15:57 52.76044 19.68851 22473 ft 360 kts 135°
2026-05-07 15:57 52.74466 19.72040 22097 ft 357 kts 135°
2026-05-07 15:57 52.72902 19.75199 21721 ft 353 kts 135°
2026-05-07 15:57 52.71354 19.78322 21347 ft 350 kts 135°
2026-05-07 15:58 52.69827 19.81416 20983 ft 348 kts 133°
2026-05-07 15:58 52.68542 19.84835 20600 ft 352 kts 125°
2026-05-07 15:58 52.67324 19.88358 20294 ft 356 kts 125°
2026-05-07 15:58 52.66095 19.91898 19950 ft 356 kts 125°
2026-05-07 15:59 52.64864 19.95437 19599 ft 354 kts 125°
2026-05-07 15:59 52.63644 19.98943 19249 ft 353 kts 125°
2026-05-07 15:59 52.62425 20.02437 18898 ft 351 kts 125°
2026-05-07 15:59 52.61214 20.05906 18540 ft 349 kts 125°
2026-05-07 16:00 52.60005 20.09359 18185 ft 347 kts 125°
2026-05-07 16:00 52.58803 20.12791 17801 ft 344 kts 125°
2026-05-07 16:00 52.57622 20.16160 17442 ft 341 kts 125°
2026-05-07 16:00 52.56436 20.19537 17110 ft 341 kts 125°
2026-05-07 16:01 52.55248 20.22916 16768 ft 341 kts 125°
2026-05-07 16:01 52.54060 20.26289 16418 ft 339 kts 124°
2026-05-07 16:01 52.52885 20.29623 16084 ft 336 kts 124°
2026-05-07 16:01 52.51719 20.32927 15751 ft 333 kts 124°
2026-05-07 16:02 52.50571 20.36225 15338 ft 332 kts 124°
2026-05-07 16:02 52.49435 20.39497 15017 ft 328 kts 124°
2026-05-07 16:02 52.48312 20.42723 14717 ft 325 kts 124°
2026-05-07 16:02 52.47193 20.45936 14398 ft 322 kts 124°
2026-05-07 16:03 52.46084 20.49112 14081 ft 320 kts 124°
2026-05-07 16:03 52.44989 20.52249 13758 ft 317 kts 124°
2026-05-07 16:03 52.43893 20.55379 13408 ft 315 kts 124°
2026-05-07 16:03 52.42813 20.58465 13076 ft 312 kts 124°
2026-05-07 16:04 52.41749 20.61497 12765 ft 309 kts 124°
2026-05-07 16:04 52.40683 20.64534 12468 ft 306 kts 124°
2026-05-07 16:04 52.39628 20.67537 12164 ft 303 kts 124°
2026-05-07 16:04 52.38580 20.70517 11836 ft 302 kts 124°
2026-05-07 16:05 52.37532 20.73490 11568 ft 302 kts 124°
2026-05-07 16:05 52.36481 20.76471 11296 ft 303 kts 123°
2026-05-07 16:05 52.35427 20.79455 11022 ft 303 kts 123°
2026-05-07 16:05 52.34377 20.82427 10743 ft 302 kts 123°
2026-05-07 16:06 52.33321 20.85411 10458 ft 302 kts 123°
2026-05-07 16:06 52.32278 20.88355 10151 ft 299 kts 123°
2026-05-07 16:06 52.31240 20.91279 9864 ft 297 kts 123°
2026-05-07 16:06 52.30209 20.94180 9546 ft 294 kts 123°
2026-05-07 16:07 52.29185 20.97061 9248 ft 291 kts 123°
2026-05-07 16:07 52.28173 20.99904 8965 ft 288 kts 123°
2026-05-07 16:07 52.27029 21.02527 8646 ft 281 kts 141°
2026-05-07 16:07 52.25419 21.04220 8389 ft 273 kts 155°
2026-05-07 16:08 52.23767 21.05696 8164 ft 271 kts 154°
2026-05-07 16:08 52.22110 21.07160 7923 ft 271 kts 155°
2026-05-07 16:08 52.20453 21.08610 7666 ft 269 kts 155°
2026-05-07 16:08 52.18810 21.10037 7408 ft 266 kts 155°
2026-05-07 16:09 52.17188 21.11439 7167 ft 262 kts 155°
2026-05-07 16:09 52.15586 21.12821 6919 ft 259 kts 155°
2026-05-07 16:09 52.14001 21.14210 6653 ft 258 kts 155°
2026-05-07 16:09 52.12439 21.15579 6404 ft 255 kts 155°
2026-05-07 16:10 52.10884 21.16941 6153 ft 252 kts 155°
2026-05-07 16:10 52.09341 21.18290 5911 ft 250 kts 155°
2026-05-07 16:10 52.07821 21.19617 5660 ft 247 kts 154°
2026-05-07 16:10 52.06318 21.20929 5415 ft 244 kts 154°
2026-05-07 16:11 52.04828 21.22229 5193 ft 241 kts 154°
2026-05-07 16:11 52.03341 21.23463 4950 ft 237 kts 163°
2026-05-07 16:11 52.01774 21.23698 4705 ft 227 kts 195°
2026-05-07 16:11 52.00407 21.22613 4499 ft 216 kts 224°
2026-05-07 16:12 51.99503 21.20714 4343 ft 208 kts 240°
2026-05-07 16:12 51.98769 21.18714 4240 ft 210 kts 241°
2026-05-07 16:12 51.98146 21.16579 4089 ft 210 kts 259°
2026-05-07 16:12 51.98234 21.14292 3973 ft 203 kts 289°
2026-05-07 16:13 51.99026 21.12412 3842 ft 205 kts 317°
2026-05-07 16:13 52.00223 21.11145 3691 ft 206 kts 327°
2026-05-07 16:13 52.01472 21.09989 3497 ft 207 kts 328°
2026-05-07 16:13 52.02720 21.08821 3228 ft 208 kts 328°
2026-05-07 16:14 52.03971 21.07689 2961 ft 204 kts 330°
2026-05-07 16:14 52.05196 21.06625 2696 ft 192 kts 331°
2026-05-07 16:14 52.06319 21.05654 2440 ft 174 kts 330°
2026-05-07 16:14 52.07350 21.04756 2228 ft 160 kts 332°
2026-05-07 16:15 52.08258 21.03961 2080 ft 143 kts 332°
2026-05-07 16:15 52.09124 21.03208 1848 ft 138 kts 333°
2026-05-07 16:15 52.09957 21.02492 1640 ft 134 kts 332°
2026-05-07 16:15 52.10788 21.01762 1454 ft 137 kts 332°
2026-05-07 16:16 52.11621 21.01034 1255 ft 135 kts 332°
2026-05-07 16:16 52.12448 21.00310 1078 ft 136 kts 332°
2026-05-07 16:16 52.13292 20.99574 888 ft 138 kts 332°
2026-05-07 16:16 52.14133 20.98840 695 ft 136 kts 332°
2026-05-07 16:17 52.14957 20.98110 485 ft 133 kts 331°
2026-05-07 16:17 52.15775 20.97410 353 ft 128 kts 330°
2026-05-07 16:17 52.16461 20.96808 345 ft 85 kts 332°
2026-05-07 16:17 52.16833 20.96485 338 ft 48 kts 332°
2026-05-07 16:18 52.17099 20.96267 338 ft 31 kts 343°
2026-05-07 16:18 52.17278 20.96243 336 ft 18 kts
2026-05-07 16:18 52.17370 20.96249 348 ft 10 kts 12°
2026-05-07 16:18 52.17407 20.96317 339 ft 8 kts 64°
2026-05-07 16:19 52.17438 20.96412 338 ft 11 kts 61°
2026-05-07 16:19 52.17471 20.96536 338 ft 12 kts 90°
2026-05-07 16:19 52.17439 20.96594 340 ft 11 kts 152°
2026-05-07 16:19 52.17364 20.96659 337 ft 14 kts 152°
2026-05-07 16:20 52.17273 20.96739 338 ft 15 kts 152°
2026-05-07 16:20 52.17179 20.96821 340 ft 16 kts 150°
2026-05-07 16:20 52.17082 20.96906 339 ft 16 kts 152°
2026-05-07 16:20 52.17043 20.96940 340 ft 4 kts 152°
2026-05-07 16:21 52.17024 20.96983 338 ft 6 kts 86°
2026-05-07 16:21 52.17042 20.97075 337 ft 6 kts 70°
2026-05-07 16:21 52.17047 20.97100 340 ft 0 kts 70°
2026-05-07 16:21 52.17047 20.97101 340 ft 0 kts 70°